• In Netherlands
  • List of Countries
  • For 7 days
  • Water Temperature
  • Satellite Maps
  • Weather Map
  • Weather Widgets
  • user-avatar
    Login

    Hourly Weather Galata

    Today, 20 January, Saturday

    Time Temperature Precipitation Wind Pressure Humidity
    00:00 +3°C° 0 mm 3 mps 753 mmHg 67%
    01:00 +1°C° 0 mm 4 mps 753 mmHg 69%
    02:00 +1°C° 0 mm 4 mps 753 mmHg 71%
    03:00 +1°C° 0 mm 4 mps 753 mmHg 75%
    04:00 +1°C° 0 mm 4 mps 753 mmHg 78%
    05:00 +1°C° 0 mm 4 mps 752 mmHg 81%
    06:00 +1°C° 0 mm 4 mps 752 mmHg 79%
    07:00 +1°C° 0 mm 4 mps 752 mmHg 78%
    08:00 +1°C° 0 mm 4 mps 752 mmHg 76%
    09:00 +3°C° 0 mm 3 mps 752 mmHg 71%
    10:00 +5°C° 0 mm 3 mps 753 mmHg 66%
    11:00 +7°C° 0 mm 3 mps 753 mmHg 61%
    12:00 +7°C° 0 mm 2 mps 752 mmHg 61%
    13:00 +8°C° 0 mm 2 mps 752 mmHg 61%
    14:00 +9°C° 0 mm 1 mps 752 mmHg 61%
    15:00 +7°C° 0 mm 2 mps 751 mmHg 66%
    16:00 +7°C° 0 mm 2 mps 751 mmHg 71%
    17:00 +6°C° 0 mm 2 mps 751 mmHg 75%
    18:00 +6°C° 0.3 mm 2 mps 751 mmHg 79%
    19:00 +4°C° 0.3 mm 3 mps 751 mmHg 83%
    20:00 +4°C° 0.3 mm 3 mps 750 mmHg 86%
    21:00 +3°C° 0.5 mm 4 mps 750 mmHg 86%
    22:00 +3°C° 0.5 mm 4 mps 750 mmHg 86%
    23:00 +1°C° 0.5 mm 4 mps 750 mmHg 86%

    Tomorrow, 21 January, Sunday

    Time Temperature Precipitation Wind Pressure Humidity
    00:00 +1°C° 0.5 mm 5 mps 751 mmHg 88%
    01:00 +1°C° 0.5 mm 5 mps 751 mmHg 90%
    02:00 +1°C° 0.5 mm 6 mps 752 mmHg 91%
    03:00 0°C° 0 mm 5 mps 752 mmHg 92%
    04:00 0°C° 0 mm 5 mps 752 mmHg 92%
    05:00 0°C° 0 mm 4 mps 753 mmHg 93%
    06:00 0°C° 0 mm 4 mps 753 mmHg 93%
    07:00 0°C° 0 mm 3 mps 753 mmHg 94%
    08:00 0°C° 0 mm 3 mps 754 mmHg 94%
    09:00 +1°C° 0 mm 3 mps 754 mmHg 91%
    10:00 +2°C° 0 mm 3 mps 754 mmHg 89%
    11:00 +2°C° 0 mm 3 mps 754 mmHg 86%
    12:00 +3°C° 0 mm 4 mps 753 mmHg 86%
    13:00 +3°C° 0 mm 4 mps 753 mmHg 85%
    14:00 +3°C° 0 mm 5 mps 752 mmHg 85%
    15:00 +2°C° 0.2 mm 5 mps 752 mmHg 87%
    16:00 +2°C° 0.2 mm 5 mps 752 mmHg 89%
    17:00 +2°C° 0.2 mm 5 mps 751 mmHg 91%
    18:00 +3°C° 0.3 mm 4 mps 751 mmHg 93%
    19:00 +3°C° 0.3 mm 4 mps 750 mmHg 94%
    20:00 +4°C° 0.3 mm 4 mps 750 mmHg 95%
    21:00 +4°C° 0.3 mm 4 mps 750 mmHg 95%
    22:00 +4°C° 0.3 mm 4 mps 749 mmHg 96%
    23:00 +3°C° 0.3 mm 5 mps 749 mmHg 96%

    Day after tomorrow, 22 January, Monday

    Time Temperature Precipitation Wind Pressure Humidity
    00:00 +4°C° 0.9 mm 4 mps 748 mmHg 96%
    01:00 +4°C° 0.9 mm 4 mps 748 mmHg 97%
    02:00 +4°C° 0.9 mm 4 mps 747 mmHg 97%
    03:00 +4°C° 0.7 mm 4 mps 747 mmHg 96%
    04:00 +3°C° 0.7 mm 5 mps 747 mmHg 96%
    05:00 +2°C° 0.7 mm 5 mps 746 mmHg 96%
    06:00 +2°C° 0.4 mm 6 mps 746 mmHg 95%
    07:00 +2°C° 0.4 mm 6 mps 747 mmHg 94%
    08:00 +2°C° 0.4 mm 6 mps 747 mmHg 93%
    09:00 +2°C° 0.8 mm 7 mps 747 mmHg 92%
    10:00 +1°C° 0.8 mm 8 mps 747 mmHg 90%
    11:00 0°C° 0.8 mm 9 mps 747 mmHg 89%
    12:00 0°C° 0.4 mm 9 mps 748 mmHg 89%
    13:00 0°C° 0.4 mm 10 mps 748 mmHg 89%
    14:00 0°C° 0.4 mm 10 mps 748 mmHg 88%
    15:00 0°C° 0.2 mm 10 mps 749 mmHg 89%
    16:00 -2°C° 0.2 mm 10 mps 749 mmHg 89%
    17:00 -2°C° 0.2 mm 10 mps 750 mmHg 89%
    18:00 -3°C° 0 mm 10 mps 751 mmHg 88%
    19:00 -3°C° 0 mm 10 mps 752 mmHg 88%
    20:00 -4°C° 0 mm 10 mps 753 mmHg 88%
    21:00 -4°C° 0 mm 10 mps 753 mmHg 87%
    22:00 -5°C° 0 mm 10 mps 754 mmHg 86%
    23:00 -5°C° 0 mm 9 mps 755 mmHg 86%

    23 January, Tuesday

    Time Temperature Precipitation Wind Pressure Humidity
    00:00 -6°C° 0 mm 9 mps 755 mmHg 85%
    01:00 -6°C° 0 mm 9 mps 756 mmHg 84%
    02:00 -6°C° 0 mm 9 mps 756 mmHg 83%
    03:00 -6°C° 0 mm 9 mps 757 mmHg 83%
    04:00 -6°C° 0 mm 9 mps 757 mmHg 83%
    05:00 -6°C° 0 mm 9 mps 758 mmHg 83%
    06:00 -6°C° 0 mm 9 mps 758 mmHg 82%
    07:00 -6°C° 0 mm 9 mps 759 mmHg 80%
    08:00 -6°C° 0 mm 8 mps 759 mmHg 79%
    09:00 -5°C° 0 mm 8 mps 760 mmHg 75%
    10:00 -5°C° 0 mm 8 mps 761 mmHg 71%
    11:00 -4°C° 0 mm 8 mps 761 mmHg 67%
    12:00 -4°C° 0 mm 8 mps 761 mmHg 67%
    13:00 -2°C° 0 mm 8 mps 762 mmHg 67%
    14:00 -2°C° 0 mm 8 mps 762 mmHg 66%
    15:00 -2°C° 0 mm 7 mps 763 mmHg 69%
    16:00 -3°C° 0 mm 7 mps 763 mmHg 71%
    17:00 -4°C° 0 mm 7 mps 764 mmHg 74%
    18:00 -4°C° 0 mm 7 mps 765 mmHg 75%
    19:00 -6°C° 0 mm 7 mps 766 mmHg 76%
    20:00 -6°C° 0 mm 7 mps 766 mmHg 77%
    21:00 -6°C° 0 mm 7 mps 767 mmHg 77%
    22:00 -6°C° 0 mm 7 mps 767 mmHg 76%
    23:00 -7°C° 0 mm 7 mps 768 mmHg 76%

    24 January, Wednesday

    Time Temperature Precipitation Wind Pressure Humidity
    00:00 -7°C° 0 mm 7 mps 768 mmHg 76%
    01:00 -7°C° 0 mm 7 mps 768 mmHg 75%
    02:00 -7°C° 0 mm 7 mps 768 mmHg 74%
    03:00 -8°C° 0 mm 7 mps 769 mmHg 73%
    04:00 -8°C° 0 mm 7 mps 769 mmHg 73%
    05:00 -8°C° 0 mm 7 mps 769 mmHg 72%
    06:00 -8°C° 0 mm 7 mps 770 mmHg 71%
    07:00 -8°C° 0 mm 6 mps 770 mmHg 71%
    08:00 -8°C° 0 mm 6 mps 771 mmHg 70%
    09:00 -6°C° 0 mm 6 mps 771 mmHg 64%
    10:00 -5°C° 0 mm 6 mps 771 mmHg 59%
    11:00 -4°C° 0 mm 6 mps 772 mmHg 53%
    12:00 -3°C° 0 mm 6 mps 772 mmHg 52%
    13:00 -2°C° 0 mm 5 mps 771 mmHg 51%
    14:00 -1°C° 0 mm 5 mps 771 mmHg 50%
    15:00 -2°C° 0 mm 5 mps 771 mmHg 55%
    16:00 -4°C° 0 mm 5 mps 771 mmHg 60%
    17:00 -4°C° 0 mm 4 mps 771 mmHg 66%
    18:00 -4°C° 0 mm 4 mps 772 mmHg 68%
    19:00 -4°C° 0 mm 4 mps 772 mmHg 70%
    20:00 -5°C° 0 mm 4 mps 772 mmHg 72%
    21:00 -5°C° 0 mm 3 mps 772 mmHg 71%
    22:00 -5°C° 0 mm 3 mps 772 mmHg 69%
    23:00 -5°C° 0 mm 3 mps 772 mmHg 68%

    25 January, Thursday

    Time Temperature Precipitation Wind Pressure Humidity
    00:00 -5°C° 0 mm 3 mps 772 mmHg 66%
    01:00 -5°C° 0 mm 3 mps 772 mmHg 64%
    02:00 -5°C° 0 mm 3 mps 771 mmHg 62%
    03:00 -5°C° 0 mm 3 mps 771 mmHg 60%
    04:00 -5°C° 0 mm 3 mps 771 mmHg 59%
    05:00 -5°C° 0 mm 3 mps 771 mmHg 57%
    06:00 -5°C° 0 mm 3 mps 771 mmHg 56%
    07:00 -5°C° 0 mm 3 mps 771 mmHg 55%
    08:00 -5°C° 0 mm 3 mps 771 mmHg 54%
    09:00 -4°C° 0 mm 3 mps 771 mmHg 50%
    10:00 -2°C° 0 mm 3 mps 771 mmHg 46%
    11:00 0°C° 0 mm 3 mps 771 mmHg 42%
    12:00 0°C° 0 mm 3 mps 770 mmHg 43%
    13:00 +1°C° 0 mm 3 mps 770 mmHg 44%
    14:00 +2°C° 0 mm 3 mps 770 mmHg 44%
    15:00 +1°C° 0 mm 3 mps 769 mmHg 51%
    16:00 0°C° 0 mm 3 mps 769 mmHg 57%
    17:00 -1°C° 0 mm 3 mps 769 mmHg 63%
    18:00 -1°C° 0 mm 3 mps 769 mmHg 66%
    19:00 -2°C° 0 mm 3 mps 769 mmHg 70%
    20:00 -2°C° 0 mm 3 mps 769 mmHg 73%
    21:00 -2°C° 0 mm 3 mps 769 mmHg 75%
    22:00 -2°C° 0 mm 3 mps 769 mmHg 77%
    23:00 -2°C° 0 mm 2 mps 769 mmHg 79%
    Show more